www.pogodaiklimat.ru

Погода и климат >> Архив погоды >> Мексика >> Чойс


ПОГОДА в Чойсе

  • Прогноз погоды в Чойсе
  • Монитор погоды в Чойсе

АРХИВ ПОГОДЫ в Чойсе

Время (UTC), дата Ветер
(напр.,м/с)
 
Видим.   Явления Облачность Т
(С)
Тd
(С)
f
(%)
Тe
(С)
Тes
(С)
Комфортность P
(гПа)
Po
(гПа)
Тmin
(С)
Tmax
(С)
R
(мм)
R24
(мм)
S
(см)
15 15.09 В 1 30 км 4/4 750 м
[Cu med, cong]
+25.0 +17.1 62 +29 +32 душно 1012.6 985.4
18 15.09 штиль 0 30 км 3/3 750 м
[Sc diur, vesp]
+31.8 +21.2 53 +39 +55 опасность
солнечного
удара
1011.1 984.1 +22.0 +32.0
21 15.09 штиль 0 30 км 3/3 600 м
[Cu med, cong]
+34.2 +21.5 48 +42 +56 опасность
перегрева
1010.0 983.3
00 16.09 штиль 0 30 км 8/8 750 м
[Sc]
+33.2 +20.3 47 +40 +40 очень
душно
1008.9 982.4 +22.0 +35.2
03 16.09 штиль 0 2000 м 10/10 600 м
[Sc]
+25.6 +15.2 53 +29 +29 душно 1011.1 984.6
06 16.09 З 1 2000 м в посл. час морось 10/10 750 м
[]
+23.8 +15.2 59 +27 +27 жарко 1010.7 984.1 +35.2 0.3
09 16.09 З 1 10 км 3/3 750 м
[Sc]
+23.0 +16.0 65 +27 +27 душно 1011.2 984.4
12 16.09 штиль 0 10 км ясно +21.8 +16.8 73 +26 +26 душно 1011.2 984.1 +22.0 +35.2
15 16.09 штиль 0 30 км ясно +23.0 +19.1 79 +29 +34 очень
душно
1012.8 985.6
18 16.09 штиль 0 30 км ясно +32.0 +26.1 71 +48 +70 опасность
перегрева
1011.9 984.8 +21.0 +32.2
21 16.09 С 1 30 км 3/3 750 м
[Sc]
+34.0 +26.6 65 +51 +63 опасность
перегрева
1009.3 982.5
00 17.09 штиль 0 30 км 3/3 750 м
[Cu med, cong]
+34.2 +26.3 64 +51 +53 опасность
перегрева
1007.6 981.1 +21.0 +35.8
03 17.09 штиль 0 2000 м ясно +28.2 +22.4 71 +37 +37 очень
душно
1009.4 983.0
06 17.09 штиль 0 10 км ясно +25.6 +20.9 75 +32 +32 очень
душно
1009.2 982.7 +35.8
09 17.09 штиль 0 10 км ясно +24.0 +20.4 80 +30 +30 очень
душно
1009.9 983.3
12 17.09 штиль 0 10 км ясно +23.0 +20.1 84 +30 +30 очень
душно
1010.8 983.9 +22.8 +35.8
15 17.09 штиль 0 30 км ясно +24.0 +21.2 84 +30 +35 очень
душно
1011.2 984.1
18 17.09 штиль 0 30 км ясно +30.0 +25.2 76 +44 +66 опасность
перегрева
1011.3 984.3 +21.8 +31.0
21 17.09 штиль 0 30 км ясно +34.2 +27.5 68 +53 +73 опасность
перегрева
1009.2 982.3
00 18.09 штиль 0 30 км ясно +34.0 +26.1 64 +50 +53 опасность
перегрева
1007.2 980.7 +21.8 +37.4
03 18.09 штиль 0 2000 м ясно +29.0 +25.4 81 +43 +43 опасность
перегрева
1008.4 982.1
12 18.09 штиль 0 8000 м ясно +23.6 +22.8 95 +31 +31 очень
душно
1009.3 982.6 +22.6 +37.4
15 18.09 штиль 0 30 км ясно +26.0 +23.0 84 +35 +40 очень
душно
1009.8 982.9
18 18.09 штиль 0 30 км ясно +34.0 +28.4 73 +56 +78 опасность
перегрева
1010.3 983.4 +22.6 +35.0
21 18.09 С 1 30 км 4/4 750 м
[Sc diur, vesp]
+36.0 +28.9 67 +59 +69 опасность
перегрева
1008.4 981.8
00 19.09 С 1 30 км 6/6 750 м
[Sc]
+34.0 +27.3 68 +53 +54 опасность
перегрева
1007.0 980.7 +22.6 +36.5
03 19.09 штиль 0 30 км 5/5 750 м
[Sc diur, vesp]
+29.0 +23.4 72 +39 +39 очень
душно
1008.3 982.1
06 19.09 штиль 0 2000 м ясно +26.2 +21.6 76 +34 +34 очень
душно
1008.8 982.4 +36.5
12 19.09 штиль 0 6000 м ясно +23.5 +19.3 77 +28 +28 душно 1007.5 980.8 +23.3 +36.5
15 19.09 штиль 0 30 км ясно +24.6 +20.0 76 +30 +35 очень
душно
1008.2 981.3
18 19.09 штиль 0 30 км ясно +31.8 +24.7 66 +45 +66 опасность
перегрева
1007.9 981.0 +22.0 +32.0
21 19.09 З 1 30 км ясно +35.7 +24.7 53 +48 +65 опасность
перегрева
1007.1 980.4
00 20.09 С 1 30 км ясно +35.6 +24.0 51 +47 +49 опасность
перегрева
1005.3 978.9 +22.0 +36.6
03 20.09 З 1 2000 м 5/5 600 м
[Frnb]
+29.5 +22.3 65 +38 +38 очень
душно
1005.7 979.5
12 20.09 С 1 2000 м 8/8 600 м
[Frnb]
+23.2 +19.7 81 +30 +30 очень
душно
1008.6 981.9 +21.8 +36.6
15 20.09 Ю 1 30 км 9/9 750 м
[Sc diur, vesp]
+24.0 +20.0 78 +29 +30 душно 1009.7 982.7
18 20.09 Ю 1 30 км 8/8 750 м
[Sc diur, vesp]
+29.9 +23.5 69 +41 +44 опасность
перегрева
1009.8 982.8 +22.1 +30.1
21 20.09 З 1 30 км 10/10 600 м
[Frnb]
+30.2 +23.4 67 +41 +41 опасность
перегрева
1009.1 982.2
00 21.09 ЮВ 1 30 км 10/10 600 м
[Frnb]
+28.8 +22.3 68 +38 +38 очень
душно
1008.7 982.0 +22.1 +31.8
03 21.09 Ю 1 2000 м 10/10 750 м
[Sc diur, vesp]
+26.0 +20.1 70 +32 +32 очень
душно
1007.9 981.3
06 21.09 Ю 1 2000 м 10/10 750 м
[Sc diur, vesp]
+24.8 +19.5 72 +30 +30 душно 1008.3 981.6 +22.1 +31.8
09 21.09 З 1 2000 м 10/10 750 м
[Sc diur, vesp]
+24.0 +17.3 66 +28 +28 душно 1009.9 983.1
12 21.09 штиль 0 2000 м 9/9 750 м
[Sc diur, vesp]
+23.2 +16.5 66 +28 +28 душно 1009.4 982.4 +22.8 +31.8
15 21.09 ЮЗ 1 30 км 10/10 600 м
[Frnb]
+25.0 +17.8 64 +29 +29 душно 1010.0 983.0
18 21.09 ЮЗ 1 30 км 10/10 600 м
[Frnb]
+29.8 +21.1 60 +37 +37 очень
душно
1010.6 983.6 +22.2 +30.0
00 22.09 ЮЗ 1 30 км слаб. морось {дождь} 10/10 600 м
[Frnb]
+26.8 +18.7 61 +32 +32 очень
душно
1009.3 982.6 +22.2 +33.8 2
03 22.09 ЮЗ 1 2000 м 10/10 600 м
[Frnb]
+23.6 +16.2 63 +27 +27 жарко 1010.5 983.8
06 22.09 В 1 2000 м 9/9 600 м
[Frnb]
+23.2 +15.9 64 +28 +28 душно 1010.3 983.5 +22.2 +33.8
09 22.09 штиль 0 4000 м 3/3 750 м
[Sc diur, vesp]
+23.0 +16.0 65 +27 +27 душно 1010.8 983.8

 

Местоположение метеостанции Чойс (Мексика): широта 26.73 долгота -108.20 высота над уровнем моря 238 м.

В архиве по умолчанию представлена погода в Чойсе за последнюю неделю. Архивные данные за месяц целиком и за предыдущие месяцы, начиная с января 2011 года, Вы можете получить, выбрав интересующий диапазон дат из раскрывающегося списка и нажав кнопку "Ввод!".


*Определитесь, кто Вы:
робот инопланетянин человек

Внимание! Время в таблицах - всемирное. Для получения местного времени необходимо прибавить поправку, которая равна -6 ч.

Смотрите также архив погоды в соседних городах и на ближайших метеорологических станциях:

Погода в Сьюдад-Обрегоне (Мексика) (177 км)
Погода в Кульякане (Мексика) (229 км)
Погода в Темосачи (Мексика) (250 км)
Погода в Паррале (Мексика) (259 км)
Погода в Эмпальме (Мексика) (282 км)
Погода в Тепеуанесе (Мексика) (292 км)
Погода в Гуаймасе (Мексика) (296 км)
Погода в Чихуахуа (Мексика) (303 км)
Погода в Чихуахуа университете (Мексика) (303 км)
Погода в Лорето (Мексика) (319 км)

Пояснения к столбцам:

Ветер - указаны скорость ветра в м/с - средняя за 10 мин, порывы в срок и между сроками (в фигурных скобках) и направление, откуда дует ветер: С - северный, СВ - северо-восточный, В - восточный, ЮВ - юго-восточный, Ю - южный, ЮЗ - юго-западный, З - западный, СЗ - северо-западный.
Видимость - горизонтальная дальность видимости в метрах или километрах. При видимости от 1 до 10 км при отсутствии осадков обычно наблюдается дымка, при ухудшении видимости до 1 км и менее - туман. В сухую погоду видимость может ухудшаться дымом, пылью или мглою.
Явления - указаны атмосферные явления, наблюдавшиеся в срок или в последний час перед сроком; фигурными скобками обозначены явления, наблюдавшиеся между сроками (за 1-3 часа до срока); квадратными скобками обозначены град или гололедные отложения с указанием их диаметра в мм.
Облачность - указаны через наклонную черту общая и нижняя облачность в баллах и высота нижней границы облаков в метрах; квадратными скобками обозначены формы облаков: Ci - перистые, Cs - перисто-слоистые, Cc - перисто-кучевые, Ac - высококучевые, As - высокослоистые, Sc - слоисто-кучевые, Ns - слоисто-дождевые, Cu - кучевые, Cb - кучево-дождевые. Подробнее классификацию облаков см. в Атласе облаков (PDF).
T - Температура воздуха - температура, измеренная на высоте 2 м над землей.
Td - Температура точки росы - температура, при понижении до которой содержащийся в воздухе водяной пар достигнет насыщения.
f - Относительная влажность воздуха - влажноcть воздуха, измеренная на высоте 2 м над землей.
Te - Эффективная температура - температура, которую ощущает одетый по сезону человек в тени. Характеристика душности погоды. При расчете учитывается влияние влажности воздуха и скорости ветра на теплоощущения человека.
Tes - Эффективная температура на солнце - температура, которую ощущает человек, с поправкой на солнечный нагрев. Характеристика знойности погоды. Зависит от высоты солнца над горизонтом, облачности и скорости ветра. Ночью, в пасмурную погоду, а также при ветре 12 м/с и более поправка равна нулю.
P - Атмосферное давление - приведенное к уровню моря атмосферное давление.
Po - Атмосферное давление - измеренное на уровне метеостанции атмосферное давление.
Tmin - Минимальная температура - минимум температуры воздуха на высоте 2 м над землей.
Tmax - Максимальная температура - максимум температуры воздуха на высоте 2 м над землей.
R - Количество осадков - Количество выпавших осадков за период времени, мм. При наведении курсора мыши на число - период времени, за который выпало указанное количество осадков.
R24 - Количество осадков - Количество выпавших осадков за 24 часа, мм.
S - Снежный покров - Высота снежного покрова, см. При наведении курсора мыши на число - состояние снежного покрова и степень покрытия местности в баллах.